Other Public Products
Issued by NWS Grand Forks, ND

Home | Current Version | Previous Version | Graphics & Text | Print | Product List | Glossary On
Versions: 1 2 3 4 5 6 7 8 9 10 11 12 13 14 15 16 17 18 19 20 21 22 23 24 25 26 27 28 29 30 31 32 33 34 35 36 37 38 39 40 41 42 43 44 45 46 47 48 49 50
000
FPUS83 KFGF 020010
OPUFGF
PRAIRIE TO PINES WEATHER ROUNDUP
NATIONAL WEATHER SERVICE EASTERN NORTH DAKOTA/GRAND FORKS ND
700 PM CDT WED OCT 01 2014

 **SATELLITE DATA USED TO AUGMENT SKY COVER AT AUTOMATED STATIONS**
 *****  WEATHER ACROSS EASTERN NORTH DAKOTA  *****

CITY           SKY/WX    TMP DP  RH WIND       PRES   REMARKS
GRAND FORKS    MOCLDY    62  54  74 SW7       29.66R
6HR MIN TEMP:  62; 6HR MAX TEMP:  67;

GRAND FORKS AF MOCLDY    60  54  79 W7        29.68R
GRAND CITY NWS   N/A     59 N/A N/A W7          N/A
BUXTON         NOT AVBL
DEVILS LAKE    CLOUDY    59  46  63 W17       29.68R
6HR MIN TEMP:  59; 6HR MAX TEMP:  63;

FARGO          CLOUDY    64  50  60 W10       29.72R
6HR MIN TEMP:  64; 6HR MAX TEMP:  72;

WAHPETON ARPT  CLOUDY    63  45  51 W10       29.76R
$$

 *****  WEATHER ACROSS CENTRAL AND WESTERN NORTH DAKOTA  *****

CITY           SKY/WX    TMP DP  RH WIND       PRES   REMARKS
JAMESTOWN      CLOUDY    59  50  72 W13       29.74R
6HR MIN TEMP:  59; 6HR MAX TEMP:  62;

BISMARCK       CLOUDY    59  49  69 W8        29.80R
6HR MIN TEMP:  58; 6HR MAX TEMP:  64;

MINOT          CLOUDY    55  44  66 W18       29.74R
6HR MIN TEMP:  54; 6HR MAX TEMP:  60; 6HR PCP: TRACE;

MINOT AFB      MOCLDY    54  48  80 NW12      29.74R
6HR MIN TEMP:  54; 6HR MAX TEMP:  59;

GARRISON         N/A     55  46  71 W12       29.76R
6HR MIN TEMP:  54; 6HR MAX TEMP:  60;

WILLISTON      MOCLDY    55  45  68 NW14G22   29.81R
6HR MIN TEMP:  54; 6HR MAX TEMP:  59; 6HR PCP: TRACE;

DICKINSON      CLOUDY    54  45  71 NW16      29.83R
6HR MIN TEMP:  52; 6HR MAX TEMP:  56;

HETTINGER      CLOUDY    53  44  71 W12       29.87R
6HR MIN TEMP:  51; 6HR MAX TEMP:  54;

$$

 *****  OTHER OBSERVATIONS NORTHEAST NORTH DAKOTA  *****

CITY           SKY/WX    TMP DP  RH WIND       PRES   REMARKS
WALHALLA         N/A     59  50  72 W12G17    29.63R
LANGDON        CLOUDY    57  48  72 W13       29.65R
CAVALIER       CLOUDY    59  50  72 W9G18     29.63R
GRAFTON        CLOUDY    59  54  82 W12       29.65R
CANDO          CLOUDY    55  50  82 W12       29.69R
FORT TOTTEN    NOT AVBL
ROLLA          CLOUDY    55  48  76 W13G21    29.68R
RUGBY          MOCLDY    54  48  82 W16       29.71R
 ***** THE ABOVE OBSERVATIONS ARE NON NWS ARE NOT QUALITY
        CONTROLLED AND MAY MIS-REPORT RAIN FOR SNOW...
$$

 *****  OTHER OBSERVATIONS SOUTHEAST NORTH DAKOTA *****

CITY           SKY/WX    TMP DP  RH WIND       PRES   REMARKS
COOPERSTOWN    NOT AVBL
VALLEY CITY    CLOUDY    59  54  82 W9        29.73R
OAKES            N/A     59  50  72 W9        29.77R
GWINNER        MOCLDY    61  48  63 W7        29.77R
SHEYENNE NWR     N/A     63  50  62 W7        29.95S
BUFFALO        NOT AVBL
WYNDMERE         N/A     63  50  63 W5          N/A
 ***** THE ABOVE OBSERVATIONS ARE NON NWS ARE NOT QUALITY
       CONTROLLED AND MAY MIS-REPORT RAIN FOR SNOW...
$$

  *****  WEATHER ACROSS NORTHERN MINNESOTA  *****

CITY           SKY/WX    TMP DP  RH WIND       PRES   REMARKS
FLAG ISLAND    CLOUDY    57  55  94 S14       29.59R
WARROAD        CLOUDY    59  55  88 SW9       29.62R
ROSEAU         MOCLDY    61  55  82 SW8       29.62R
HALLOCK        MOCLDY    63  52  67 SW17G24   29.62R
THF RVR FALLS  CLOUDY    61  52  72 SW14      29.67R
6HR MIN TEMP:  61; 6HR MAX TEMP:  66;

HALSTAD          N/A     63  48  59 W10         N/A
FOSSTON        CLOUDY    61  50  67 SW12      29.70R
BAUDETTE       CLOUDY    57  53  86 S10       29.64R
6HR MIN TEMP:  56; 6HR MAX TEMP:  60; 6HR PCP:  0.02;

WASKISH        CLOUDY    55  54  94 S8        29.68R
CROOKSTON      CLOUDY    63  54  72 W9        29.68R
$$
  *****  WEATHER ACROSS CENTRAL AND WEST MINNESOTA  *****

CITY           SKY/WX    TMP DP  RH WIND       PRES   REMARKS
BEMIDJI        CLOUDY    56  53  89 S9        29.71R
PARK RAPIDS    CLOUDY    57  54  89 S10       29.73R FOG
6HR MIN TEMP:  53; 6HR MAX TEMP:  57;

WADENA         CLOUDY    57  55  94 CALM      29.74R FOG
DETROIT LAKES  MOCLDY    63  50  63 W10       29.75R
MOORHEAD       NOT AVBL
FERGUS FALLS   PTCLDY    63  46  55 W9        29.75R
ELBOW LAKE     FAIR      61  51  69 NW7       29.75R
6HR MIN TEMP:  61; 6HR MAX TEMP:  72;

MORRIS MN      CLEAR     64  52  63 NW10      29.74R
STAPLES        CLOUDY    55  54  94 S7        29.76R
WHEATON        PTCLDY    63  50  63 NW9       29.78R
$$
  *****  WEATHER ELSEWHERE ACROSS MINNESOTA  *****

CITY           SKY/WX    TMP DP  RH WIND       PRES   REMARKS
DULUTH         FOG       51  48  89 S7        29.80R VSB 1
6HR MIN TEMP:  49; 6HR MAX TEMP:  51; 6HR PCP:  0.26;

INTRNTL FALLS  CLOUDY    54  49  83 S9        29.69R
6HR MIN TEMP:  52; 6HR MAX TEMP:  55;

ELY            CLOUDY    48  46  93 S6        29.77R
CLOQUET        CLOUDY    50  48  93 S5        29.79R
BRAINERD       CLOUDY    52  51  97 S7        29.77R FOG
6HR MIN TEMP:  52; 6HR MAX TEMP:  53; 6HR PCP: TRACE;

HIBBING        CLOUDY    51  48  89 S9        29.77R
6HR MIN TEMP:  50; 6HR MAX TEMP:  51; 6HR PCP:  0.05;

ALEXANDRIA     MOCLDY    62  58  86 S6        29.76R
6HR MIN TEMP:  58; 6HR MAX TEMP:  64;

SAINT CLOUD    CLOUDY    58  53  84 SE10      29.78R
6HR MIN TEMP:  55; 6HR MAX TEMP:  59;

MINNEAPOLIS    CLOUDY    57  55  93 SE6       29.80R FOG
6HR MIN TEMP:  51; 6HR MAX TEMP:  57; 6HR PCP:  0.03;

$$

  *****  WEATHER ACROSS SOUTH DAKOTA  *****

CITY           SKY/WX    TMP DP  RH WIND       PRES   REMARKS
SIOUX FALLS    MOCLDY    68  53  58 NW5       29.77R
6HR MIN TEMP:  68; 6HR MAX TEMP:  76;

BROOKINGS      NOT AVBL
WATERTOWN      CLEAR     63  50  62 W6        29.77R
6HR MIN TEMP:  63; 6HR MAX TEMP:  71;

HURON          MOCLDY    68  49  50 N13       29.77R
6HR MIN TEMP:  68; 6HR MAX TEMP:  76;

SISSETON         N/A     64  50  60 NW8       29.75R
ABERDEEN       CLEAR     60  50  69 NW8       29.80R
6HR MIN TEMP:  60; 6HR MAX TEMP:  70;

MITCHELL       PTCLDY    68  51  54 NW6       29.77R
PIERRE         PTCLDY    59  46  62 NW16      29.83R
6HR MIN TEMP:  59; 6HR MAX TEMP:  71;

MOBRIDGE       CLOUDY    59  49  69 W13       29.81R
RAPID CITY     CLOUDY    53  42  66 N10       29.92R
6HR MIN TEMP:  50; 6HR MAX TEMP:  58; 6HR PCP:  0.15;

$$

  *****  SOME WEATHER IN NEARBY STATES *****

CITY           SKY/WX    TMP DP  RH WIND       PRES   REMARKS
GLASGOW MT     PTCLDY    59  33  37 NW13      29.84R
6HR MIN TEMP:  54; 6HR MAX TEMP:  61;

GREAT FALLS MT PTCLDY    54  30  40 SW22      29.89S
6HR MIN TEMP:  53; 6HR MAX TEMP:  60;

CHEYENNE WY    MOCLDY    42  36  79 N7        29.99R
6HR MIN TEMP:  38; 6HR MAX TEMP:  60; 6HR PCP:  0.22;

SCOTTSBLUFF NE CLOUDY    54  43  66 NW25G32   29.94R
6HR MIN TEMP:  54; 6HR MAX TEMP:  67;

OMAHA NE       MOCLDY    73  62  68 NE3       29.74R
6HR MIN TEMP:  71; 6HR MAX TEMP:  75;

DES MOINES IA  CLOUDY    69  63  81 S5        29.77R
6HR MIN TEMP:  69; 6HR MAX TEMP:  72;

DAVENPORT IA   NOT AVBL
CHICAGO IL     MOCLDY    66  54  65 E6        29.90R
6HR MIN TEMP:  66; 6HR MAX TEMP:  70;

EAU CLAIRE WI  CLOUDY    56  55  97 CALM      29.83R
6HR MIN TEMP:  51; 6HR MAX TEMP:  56; 6HR PCP:  0.17;

LA CROSSE WI   MOCLDY    64  56  75 E5        29.81S
6HR MIN TEMP:  60; 6HR MAX TEMP:  65; 6HR PCP: TRACE;

$$

  *****  SOME NATIONAL WEATHER *****

CITY           SKY/WX    TMP DP  RH WIND       PRES   REMARKS
LA GUARDIA NY  CLOUDY    65  56  72 NE12      30.06R



USA.gov is the U.S. government's official web portal to all federal, state and local government web resources and services.